Regional Weather Roundup
Issued by NWS

Home | Current Version | Previous Version | Graphics & Text | Print | Product List | Glossary On
Versions: 1 2 3 4 5 6 7 8 9 10 11 12 13 14 15 16 17 18 19 20 21 22 23 24 25 26 27 28 29 30 31 32 33 34 35 36 37 38 39 40 41 42 43 44 45 46 47 48 49 50
000
ASUS43 KLMK 250310
RWRKY
KENTUCKY REGIONAL WEATHER ROUNDUP
NATIONAL WEATHER SERVICE LOUISVILLE KY
1100 PM EDT FRI APR 24 2015

NOTE "FAIR" INDICATES FEW OR NO CLOUDS BELOW 12,000 FEET
WITH NO SIGNIFICANT WEATHER AND/OR OBSTRUCTIONS TO VISIBILITY.

KYZ001>023-026-027-061>063-070>075-250400-
WESTERN AND SOUTH CENTRAL KENTUCKY

CITY           SKY/WX    TMP DP  RH WIND       PRES   REMARKS
PADUCAH        CLOUDY    58  43  57 S10       29.82F
HENDERSON      CLOUDY    55  39  54 SE7       29.86S
OWENSBORO      CLOUDY    57  41  55 SE6       29.87F
HOPKINSVILLE   CLOUDY    59  43  54 S6        29.87F
BOWLING GREEN  CLOUDY    58  45  62 E3        29.91S
GLASGOW        DRIZZLE   56  47  70 CALM      29.91F
$$

KYZ024-025-028>034-038-045-046-053-250400-
NORTH CENTRAL KENTUCKY

CITY           SKY/WX    TMP DP  RH WIND       PRES   REMARKS
LOUISVILLE/SDF CLOUDY    61  31  32 SE6       29.90F
LOUISVILLE/LOU CLOUDY    60  30  32 SE6       29.91F
FORT KNOX      CLOUDY    57  39  51 E3        29.89F
$$

KYZ035>037-039>044-047>052-055>060-089>105-250400-
NORTHEAST KENTUCKY

CITY           SKY/WX    TMP DP  RH WIND       PRES   REMARKS
LEXINGTON      CLOUDY    55  34  45 NE5       29.94S
COVINGTON      CLOUDY    54  33  45 SE5       29.92F
FRANKFORT      CLOUDY    55  34  45 E3        29.92S
$$

KYZ054-064>069-076>088-106>120-250400-
SOUTHEAST KENTUCKY

CITY           SKY/WX    TMP DP  RH WIND       PRES   REMARKS
JACKSON        CLOUDY    56  22  26 CALM      29.94F
LONDON         CLOUDY    58  34  40 SE3       29.94R
SOMERSET       CLOUDY    55  37  50 CALM      29.94F
MIDDLESBORO    CLOUDY    56  40  53 CALM      29.96S
MONTICELLO     CLOUDY    55  45  69 CALM      29.97R
$$




USA.gov is the U.S. government's official web portal to all federal, state and local government web resources and services.